This is the latest recevied weather packets stored in our database for station/object KE8WAY. If no packets are shown the sender has not sent any weather packets the latest 10 day(s).
| Time | Temp. | Humidity | Pressure | Rain* | Wind** | Luminosity | Snow |
|---|---|---|---|---|---|---|---|
| 1777184116 | 8.89° C | 86% | 1017 hPa | 0 mm | - | 0 W/m² | - |
| 1777183812 | 8.89° C | 86% | 1017 hPa | 0 mm | - | 0 W/m² | - |
| 1777183509 | 8.89° C | 86% | 1016.8 hPa | 0 mm | - | 0 W/m² | - |
| 1777183209 | 9.44° C | 87% | 1017.1 hPa | 0 mm | - | 0 W/m² | - |
| 1777182905 | 9.44° C | 87% | 1017.1 hPa | 0 mm | - | 0 W/m² | - |
| 1777182601 | 9.44° C | 87% | 1017.1 hPa | 0 mm | - | 0 W/m² | - |
| 1777182296 | 9.44° C | 87% | 1017.2 hPa | 0 mm | - | 0 W/m² | - |
| 1777181994 | 9.44° C | 87% | 1017.1 hPa | 0 mm | - | 0 W/m² | - |
| 1777181689 | 9.44° C | 87% | 1017.3 hPa | 0 mm | - | 0 W/m² | - |
| 1777181385 | 9.44° C | 87% | 1017.1 hPa | 0 mm | - | 0 W/m² | - |
| 1777181084 | 8.89° C | 87% | 1017.3 hPa | 0 mm | - | 0 W/m² | - |
| 1777180780 | 9.44° C | 87% | 1017.3 hPa | 0 mm | - | 0 W/m² | - |
| 1777180477 | 9.44° C | 88% | 1017.2 hPa | 0 mm | - | 0 W/m² | - |
| 1777180173 | 9.44° C | 88% | 1017 hPa | 0 mm | - | 0 W/m² | - |
| 1777179868 | 9.44° C | 88% | 1017.2 hPa | 0 mm | - | 0 W/m² | - |
| 1777179565 | 9.44° C | 87% | 1017.1 hPa | 0 mm | - | 0 W/m² | - |
| 1777179264 | 8.89° C | 87% | 1016.9 hPa | 0 mm | - | 0 W/m² | - |
| 1777178959 | 8.89° C | 90% | 1017 hPa | 0 mm | - | 0 W/m² | - |
| 1777178658 | 8.89° C | 90% | 1017 hPa | 0 mm | - | 0 W/m² | - |
| 1777178353 | 8.89° C | 90% | 1017.1 hPa | 0 mm | - | 0 W/m² | - |
| 1777178048 | 8.89° C | 91% | 1017.1 hPa | 0 mm | - | 0 W/m² | - |
| 1777177746 | 9.44° C | 89% | 1017 hPa | 0 mm | - | 0 W/m² | - |
| 1777177443 | 9.44° C | 86% | 1017.3 hPa | 0 mm | - | 0 W/m² | - |
| 1777177139 | 9.44° C | 88% | 1017.2 hPa | 0 mm | - | 0 W/m² | - |
| 1777176836 | 9.44° C | 88% | 1017.3 hPa | 0 mm | - | 0 W/m² | - |
* Rain latest hour (hover to see other rain measurements)
** Current wind speed in m/s (hover to see current wind gust speed)